FW4443 Weather Reports


Display with metric or nautical units.
time (UTC)temp
F
wind
direction
speed
MPH
gust
MPH
rain 1hr
in
rain 24hr
in
rain mn
in
humidity
%
barometer
mb
20260508192205 97 128 2.0 8.0 0.00 0.00 0.00 11 1011.2
20260508191843 96 45 1.0 5.0 0.00 0.00 0.00 11 1011.3
20260508191519 97 163 1.0 11.0 0.00 0.00 0.00 10 1011.4
20260508190900 96 329 2.0 11.0 0.00 0.00 0.00 10 1011.5
20260508190542 96 333 2.0 11.0 0.00 0.00 0.00 13 1011.5
20260508190219 95 262 3.0 11.0 0.00 0.00 0.00 12 1011.5
20260508185858 96 241 3.0 11.0 0.00 0.00 0.00 10 1011.5
20260508185533 96 105 4.0 8.0 0.00 0.00 0.00 10 1011.5
20260508185212 96 177 3.0 8.0 0.00 0.00 0.00 11 1011.7
20260508184848 97 206 3.0 8.0 0.00 0.00 0.00 13 1011.7
20260508184532 97 196 2.0 8.0 0.00 0.00 0.00 11 1011.7
20260508184207 96 87 3.0 8.0 0.00 0.00 0.00 10 1011.8
20260508183845 97 142 3.0 8.0 0.00 0.00 0.00 10 1011.8
20260508183226 98 325 2.0 7.0 0.00 0.00 0.00 11 1012.0
20260508182909 98 307 2.0 7.0 0.00 0.00 0.00 12 1012.0
20260508182554 96 56 2.0 6.0 0.00 0.00 0.00 11 1012.1
20260508182230 96 96 2.0 7.0 0.00 0.00 0.00 12 1012.1
20260508181910 96 110 2.0 7.0 0.00 0.00 0.00 12 1012.1
20260508181547 96 64 2.0 7.0 0.00 0.00 0.00 12 1012.1
20260508181228 96 297 2.0 7.0 0.00 0.00 0.00 10 1012.1
20260508180910 95 275 1.0 7.0 0.00 0.00 0.00 11 1012.1
20260508180544 95 22 1.0 7.0 0.00 0.00 0.00 13 1012.1
20260508180224 95 86 1.0 7.0 0.00 0.00 0.00 12 1012.2
20260508175907 95 278 2.0 7.0 0.00 0.00 0.00 11 1012.1
20260508175242 94 5 2.0 6.0 0.00 0.00 0.00 13 1012.1
20260508174622 94 75 2.0 6.0 0.00 0.00 0.00 15 1012.2
20260508174307 93 101 1.0 6.0 0.00 0.00 0.00 15 1012.3
20260508173943 93 104 2.0 6.0 0.00 0.00 0.00 11 1012.3
20260508173620 94 17 1.0 6.0 0.00 0.00 0.00 13 1012.4
20260508173259 94 93 2.0 6.0 0.00 0.00 0.00 13 1012.4
20260508172940 93 343 2.0 8.0 0.00 0.00 0.00 15 1012.4
20260508172618 93 288 3.0 8.0 0.00 0.00 0.00 14 1012.5
20260508172301 93 54 3.0 8.0 0.00 0.00 0.00 13 1012.4
20260508171941 93 67 3.0 8.0 0.00 0.00 0.00 15 1012.4
20260508171617 93 42 2.0 8.0 0.00 0.00 0.00 15 1012.4
20260508171255 93 28 2.0 8.0 0.00 0.00 0.00 15 1012.4
20260508170940 92 126 2.0 6.0 0.00 0.00 0.00 14 1012.5
20260508170622 92 78 2.0 6.0 0.00 0.00 0.00 14 1012.5
20260508170302 92 118 2.0 11.0 0.00 0.00 0.00 15 1012.5
20260508165948 93 73 3.0 11.0 0.00 0.00 0.00 15 1012.5
20260508165628 92 19 3.0 11.0 0.00 0.00 0.00 14 1012.5
20260508165308 92 33 4.0 11.0 0.00 0.00 0.00 13 1012.5
20260508164943 92 14 4.0 11.0 0.00 0.00 0.00 13 1012.4
20260508164621 92 344 4.0 11.0 0.00 0.00 0.00 13 1012.5
20260508164256 91 344 4.0 9.0 0.00 0.00 0.00 13 1012.6
20260508163934 91 355 4.0 9.0 0.00 0.00 0.00 13 1012.5
20260508163611 91 35 4.0 9.0 0.00 0.00 0.00 13 1012.5
20260508163256 91 337 4.0 8.0 0.00 0.00 0.00 13 1012.6
20260508162636 91 32 3.0 7.0 0.00 0.00 0.00 14 1012.6
20260508162310 90 46 2.0 7.0 0.00 0.00 0.00 16 1012.6
20260508161946 89 0 2.0 7.0 0.00 0.00 0.00 16 1012.5
20260508161625 89 61 1.0 5.0 0.00 0.00 0.00 17 1012.6
20260508160708 88 42 0.0 4.0 0.00 0.00 0.00 18 1012.6
20260508160343 88 75 0.0 4.0 0.00 0.00 0.00 16 1012.5
20260508160026 87 111 0.0 4.0 0.00 0.00 0.00 16 1012.5
20260508155705 86 269 0.0 4.0 0.00 0.00 0.00 16 1012.7
20260508155351 86 192 0.0 4.0 0.00 0.00 0.00 16 1012.6
20260508155031 86 159 0.0 4.0 0.00 0.00 0.00 19 1012.6
20260508154705 85 21 0.0 2.0 0.00 0.00 0.00 19 1012.6
20260508154348 85 51 0.0 0.0 0.00 0.00 0.00 17 1012.6
20260508154028 85 51 0.0 2.0 0.00 0.00 0.00 18 1012.7
20260508153707 84 77 0.0 5.0 0.00 0.00 0.00 21 1012.6
20260508153351 84 148 1.0 5.0 0.00 0.00 0.00 19 1012.6
20260508153035 84 151 1.0 5.0 0.00 0.00 0.00 19 1012.7
20260508152408 83 141 2.0 5.0 0.00 0.00 0.00 20 1012.7
20260508152043 82 115 2.0 5.0 0.00 0.00 0.00 21 1012.7
20260508151726 82 109 2.0 5.0 0.00 0.00 0.00 22 1012.7
20260508151400 81 129 1.0 5.0 0.00 0.00 0.00 22 1012.7
20260508151043 81 103 1.0 5.0 0.00 0.00 0.00 22 1012.8
20260508150122 80 129 1.0 3.0 0.00 0.00 0.00 23 1012.7
20260508145800 79 124 1.0 3.0 0.00 0.00 0.00 23 1012.7
20260508145445 78 155 1.0 3.0 0.00 0.00 0.00 23 1012.7
20260508145123 78 133 1.0 3.0 0.00 0.00 0.00 23 1012.7
20260508144800 77 152 1.0 2.0 0.00 0.00 0.00 22 1012.7
20260508144136 76 110 0.0 2.0 0.00 0.00 0.00 24 1012.6
20260508143819 75 152 0.0 3.0 0.00 0.00 0.00 24 1012.7
20260508143457 74 263 0.0 3.0 0.00 0.00 0.00 26 1012.7
20260508143134 73 188 0.0 3.0 0.00 0.00 0.00 26 1012.6
20260508142813 72 164 0.0 3.0 0.00 0.00 0.00 26 1012.6
20260508142157 71 311 1.0 3.0 0.00 0.00 0.00 29 1012.6
20260508141838 71 147 1.0 3.0 0.00 0.00 0.00 29 1012.6
20260508141514 71 164 0.0 3.0 0.00 0.00 0.00 30 1012.6
20260508140852 71 197 0.0 0.0 0.00 0.00 0.00 30 1012.6
20260508140533 70 0 0.0 1.0 0.00 0.00 0.00 31 1012.5
20260508140209 70 0 1.0 3.0 0.00 0.00 0.00 29 1012.4
20260508135851 70 214 1.0 3.0 0.00 0.00 0.00 29 1012.4
20260508135531 70 236 2.0 3.0 0.00 0.00 0.00 29 1012.4
20260508135211 69 237 1.0 3.0 0.00 0.00 0.00 28 1012.3
20260508134852 69 209 1.0 3.0 0.00 0.00 0.00 28 1012.3
20260508134535 68 207 0.0 3.0 0.00 0.00 0.00 28 1012.3
20260508134220 68 229 0.0 2.0 0.00 0.00 0.00 29 1012.2
20260508133854 68 119 0.0 1.0 0.00 0.00 0.00 29 1012.2
20260508133533 68 337 0.0 0.0 0.00 0.00 0.00 29 1012.1
20260508133210 67 0 0.0 3.0 0.00 0.00 0.00 30 1012.1
20260508132855 67 0 1.0 3.0 0.00 0.00 0.00 30 1011.8
20260508132535 67 0 1.0 3.0 0.00 0.00 0.00 30 1011.8
20260508132209 66 0 1.0 5.0 0.00 0.00 0.00 29 1011.7
20260508131854 66 0 0.0 4.0 0.00 0.00 0.00 29 1011.7
20260508131539 66 0 0.0 3.0 0.00 0.00 0.00 31 1011.6
20260508130916 65 0 1.0 7.0 0.00 0.00 0.00 30 1011.6
20260508130554 65 0 1.0 7.0 0.00 0.00 0.00 30 1011.5
20260508130228 65 0 2.0 7.0 0.00 0.00 0.00 30 1011.6
20260508125912 65 0 3.0 7.0 0.00 0.00 0.00 30 1011.5
20260508125549 65 0 3.0 7.0 0.00 0.00 0.00 29 1011.6
20260508125234 65 0 3.0 5.0 0.00 0.00 0.00 31 1011.4
20260508124617 65 0 2.0 5.0 0.00 0.00 0.00 32 1011.3
20260508123354 65 0 2.0 4.0 0.00 0.00 0.00 31 1011.3
20260508123029 65 0 2.0 3.0 0.00 0.00 0.00 31 1011.2
20260508122705 65 0 2.0 3.0 0.00 0.00 0.00 32 1011.2
20260508122341 65 0 2.0 4.0 0.00 0.00 0.00 33 1011.3
20260508122023 65 0 2.0 4.0 0.00 0.00 0.00 32 1011.3
20260508121700 65 0 3.0 4.0 0.00 0.00 0.00 32 1011.3
20260508121338 65 0 3.0 4.0 0.00 0.00 0.00 32 1011.2
20260508121021 65 0 3.0 4.0 0.00 0.00 0.00 32 1011.3
20260508120658 65 0 3.0 4.0 0.00 0.00 0.00 32 1011.3
20260508120040 65 0 2.0 4.0 0.00 0.00 0.00 31 1011.3
20260508115719 65 0 2.0 4.0 0.00 0.00 0.00 31 1011.3
20260508115354 65 0 2.0 3.0 0.00 0.00 0.00 30 1011.3
20260508115039 65 0 1.0 4.0 0.00 0.00 0.00 31 1011.3
20260508114715 65 0 1.0 4.0 0.00 0.00 0.00 31 1011.3
20260508114058 65 0 0.0 2.0 0.00 0.00 0.00 30 1011.2
20260508113742 66 0 1.0 2.0 0.00 0.00 0.00 30 1011.2
20260508113418 66 0 1.0 2.0 0.00 0.00 0.00 31 1011.3
20260508113058 66 0 1.0 4.0 0.00 0.00 0.00 29 1011.2
20260508112736 66 0 1.0 4.0 0.00 0.00 0.00 29 1011.3
20260508112121 66 0 1.0 3.0 0.00 0.00 0.00 28 1011.2
20260508111801 66 0 1.0 3.0 0.00 0.00 0.00 29 1011.3
20260508111443 66 0 0.0 3.0 0.00 0.00 0.00 29 1011.2
20260508111124 66 0 0.0 2.0 0.00 0.00 0.00 28 1011.3
20260508110759 66 0 0.0 2.0 0.00 0.00 0.00 29 1011.2
20260508110444 66 0 0.0 0.0 0.00 0.00 0.00 28 1011.2
20260508110130 66 0 0.0 1.0 0.00 0.00 0.00 28 1011.1
20260508105209 67 0 0.0 2.0 0.00 0.00 0.00 27 1011.2
20260508104848 67 0 0.0 2.0 0.00 0.00 0.00 27 1011.2
20260508104530 67 0 1.0 2.0 0.00 0.00 0.00 27 1011.1
20260508103903 67 0 2.0 3.0 0.00 0.00 0.00 27 1011.2
20260508103542 67 0 2.0 3.0 0.00 0.00 0.00 27 1011.2
20260508102925 67 0 0.0 2.0 0.00 0.00 0.00 27 1011.2
20260508102601 67 0 0.0 1.0 0.00 0.00 0.00 27 1011.2
20260508102240 68 0 1.0 0.0 0.00 0.00 0.00 27 1011.2
20260508101016 68 0 0.0 3.0 0.00 0.00 0.00 27 1011.1
20260508100700 68 0 0.0 1.0 0.00 0.00 0.00 27 1011.0
20260508100335 68 0 0.0 1.0 0.00 0.00 0.00 26 1011.0
20260508100011 68 0 1.0 4.0 0.00 0.00 0.00 27 1011.1
20260508095651 68 0 1.0 4.0 0.00 0.00 0.00 26 1011.0
20260508095329 69 0 1.0 4.0 0.00 0.00 0.00 25 1011.0
20260508095010 69 0 1.0 4.0 0.00 0.00 0.00 26 1011.0
20260508094648 69 0 1.0 4.0 0.00 0.00 0.00 26 1011.0
20260508094329 69 0 1.0 4.0 0.00 0.00 0.00 26 1010.9
20260508094014 69 0 1.0 3.0 0.00 0.00 0.00 26 1011.0
20260508093359 69 0 1.0 3.0 0.00 0.00 0.00 25 1011.0
20260508092740 69 0 0.0 3.0 0.00 0.00 0.00 25 1010.9
20260508092419 69 0 1.0 3.0 0.00 0.00 0.00 26 1010.9
20260508092100 69 0 1.0 3.0 0.00 0.00 0.00 27 1010.9
20260508091745 69 0 2.0 3.0 0.00 0.00 0.00 25 1011.0
20260508091429 69 0 2.0 3.0 0.00 0.00 0.00 25 1011.0
20260508091111 69 0 1.0 3.0 0.00 0.00 0.00 26 1010.9
20260508090756 69 0 1.0 3.0 0.00 0.00 0.00 26 1010.8
20260508090442 69 0 0.0 3.0 0.00 0.00 0.00 25 1010.8
20260508090127 69 0 0.0 3.0 0.00 0.00 0.00 26 1010.7
20260508085807 69 0 0.0 1.0 0.00 0.00 0.00 26 1010.8
20260508085145 69 0 0.0 2.0 0.00 0.00 0.00 25 1010.7
20260508084830 69 0 1.0 1.0 0.00 0.00 0.00 25 1010.8
20260508084507 69 0 1.0 3.0 0.00 0.00 0.00 25 1010.7
20260508083840 70 0 0.0 2.0 0.00 0.00 0.00 26 1010.8
20260508083521 70 0 0.0 2.0 0.00 0.00 0.00 25 1010.8
20260508083200 70 0 0.0 2.0 0.00 0.00 0.00 25 1010.8
20260508082545 70 0 0.0 3.0 0.00 0.00 0.00 25 1010.8
20260508081624 70 0 0.0 0.0 0.00 0.00 0.00 25 1011.0
20260508081308 70 0 0.0 2.0 0.00 0.00 0.00 25 1011.0
20260508080950 70 0 0.0 2.0 0.00 0.00 0.00 25 1011.0
20260508080627 71 0 0.0 2.0 0.00 0.00 0.00 24 1011.0
20260508080308 71 0 0.0 1.0 0.00 0.00 0.00 24 1011.0
20260508075951 71 0 0.0 3.0 0.00 0.00 0.00 24 1010.9
20260508075628 71 0 0.0 3.0 0.00 0.00 0.00 24 1011.0
20260508075309 71 0 1.0 3.0 0.00 0.00 0.00 24 1011.0
20260508074950 71 0 0.0 2.0 0.00 0.00 0.00 24 1011.0
20260508074632 71 0 0.0 2.0 0.00 0.00 0.00 23 1011.0
20260508074313 71 0 0.0 2.0 0.00 0.00 0.00 23 1011.0
20260508073950 71 0 1.0 2.0 0.00 0.00 0.00 23 1011.1
20260508073634 72 0 1.0 2.0 0.00 0.00 0.00 23 1011.0
20260508073314 72 0 1.0 2.0 0.00 0.00 0.00 23 1011.1
20260508072954 72 0 0.0 2.0 0.00 0.00 0.00 23 1011.0
20260508072639 72 0 0.0 2.0 0.00 0.00 0.00 22 1011.1
20260508072024 72 0 0.0 1.0 0.00 0.00 0.00 22 1011.1
20260508071703 72 0 0.0 1.0 0.00 0.00 0.00 21 1011.1
20260508071346 72 0 0.0 1.0 0.00 0.00 0.00 21 1011.0
20260508071031 73 0 0.0 2.0 0.00 0.00 0.00 21 1011.0
20260508070714 73 0 1.0 5.0 0.00 0.00 0.00 21 1011.0
20260508070355 73 0 1.0 5.0 0.00 0.00 0.00 20 1011.1
20260508065739 73 0 1.0 5.0 0.00 0.00 0.00 20 1011.0
20260508065419 73 0 2.0 5.0 0.00 0.00 0.00 20 1011.0
20260508065100 74 0 2.0 5.0 0.00 0.00 0.00 20 1011.1
20260508064738 74 0 2.0 4.0 0.00 0.00 0.00 19 1011.0
20260508064419 74 0 1.0 4.0 0.00 0.00 0.00 20 1011.1
20260508063756 74 0 2.0 4.0 0.00 0.00 0.00 19 1011.1
20260508063137 75 0 2.0 4.0 0.00 0.00 0.00 19 1011.1
20260508062822 75 0 2.0 4.0 0.00 0.00 0.00 19 1011.0
20260508062508 75 0 2.0 4.0 0.00 0.00 0.00 19 1011.0
20260508062150 75 0 2.0 4.0 0.00 0.00 0.00 18 1011.0
20260508061231 76 0 1.0 4.0 0.00 0.00 0.00 18 1010.9
20260508060910 76 0 1.0 4.0 0.00 0.00 0.00 18 1010.9
20260508060547 76 0 1.0 4.0 0.00 0.00 0.00 19 1011.0
20260508055628 77 0 0.0 2.0 0.00 0.00 0.00 17 1011.0
20260508055306 77 0 0.0 2.0 0.00 0.00 0.00 17 1011.1
20260508054940 77 0 0.0 2.0 0.00 0.00 0.00 17 1011.1
20260508054617 76 0 1.0 0.0 0.00 0.00 0.00 17 1011.1
20260508054258 76 0 2.0 4.0 0.00 0.00 0.00 17 1011.0
20260508053943 76 0 2.0 4.0 0.00 0.00 0.00 16 1011.0
20260508053619 77 0 1.0 3.0 0.00 0.00 0.00 16 1011.0
20260508053259 77 0 1.0 3.0 0.00 0.00 0.00 17 1011.0
20260508052937 77 0 1.0 3.0 0.00 0.00 0.00 17 1011.0
20260508052615 78 0 0.0 3.0 0.00 0.00 0.00 17 1011.0
20260508052256 78 0 0.0 1.0 0.00 0.00 0.00 16 1011.1
20260508051941 79 0 0.0 0.0 0.00 0.00 0.00 16 1011.1
20260508051617 79 0 0.0 0.0 0.00 0.00 0.00 16 1011.1
20260508051259 79 0 0.0 0.0 0.00 0.00 0.00 16 1011.1
20260508050936 80 0 1.0 2.0 0.00 0.00 0.00 15 1011.1
20260508050610 80 0 1.0 2.0 0.00 0.00 0.00 15 1011.0
20260508050245 80 0 0.0 2.0 0.00 0.00 0.00 14 1011.0
20260508045921 81 0 0.0 3.0 0.00 0.00 0.00 14 1011.0
20260508045607 81 0 0.0 3.0 0.00 0.00 0.00 14 1011.1
20260508045251 82 0 1.0 3.0 0.00 0.00 0.00 14 1011.0
20260508044628 82 0 1.0 3.0 0.00 0.00 0.00 14 1011.0
20260508044311 82 0 1.0 3.0 0.00 0.00 0.00 13 1011.1
20260508043957 83 0 1.0 3.0 0.00 0.00 0.00 13 1011.1
20260508043342 83 0 1.0 3.0 0.00 0.00 0.00 13 1011.1
20260508043026 83 0 1.0 3.0 0.00 0.00 0.00 13 1011.0
20260508042706 83 0 1.0 3.0 0.00 0.00 0.00 13 1011.0
20260508042350 84 0 1.0 3.0 0.00 0.00 0.00 13 1010.9
20260508042031 84 0 2.0 3.0 0.00 0.00 0.00 12 1010.9
20260508041712 84 0 2.0 5.0 0.00 0.00 0.00 12 1010.9
20260508041352 84 0 2.0 5.0 0.00 0.00 0.00 12 1010.7
20260508041030 85 0 2.0 5.0 0.00 0.00 0.00 12 1010.8
20260508040707 85 0 3.0 5.0 0.00 0.00 0.00 12 1010.8
20260508040345 85 0 2.0 5.0 0.00 0.00 0.00 12 1010.9
20260508040020 85 0 2.0 5.0 0.00 0.00 0.00 12 1010.8
20260508035703 86 0 2.0 4.0 0.00 0.00 0.00 12 1010.8
20260508035339 86 0 2.0 4.0 0.00 0.00 0.00 12 1010.7
20260508035016 86 0 2.0 9.0 0.00 0.00 0.00 12 1010.7
20260508034657 86 0 3.0 9.0 0.00 0.00 0.00 12 1010.6
20260508033740 86 183 4.0 9.0 0.00 0.00 0.00 12 1010.6
20260508033421 86 218 4.0 9.0 0.00 0.00 0.00 12 1010.6
20260508032804 86 223 3.0 9.0 0.00 0.00 0.00 12 1010.5
20260508031849 86 256 3.0 9.0 0.00 0.00 0.00 12 1010.4
20260508031533 86 234 3.0 7.0 0.00 0.00 0.00 13 1010.3
20260508031215 87 224 4.0 9.0 0.00 0.00 0.00 13 1010.4
20260508030851 87 221 3.0 9.0 0.00 0.00 0.00 14 1010.4
20260508030225 87 165 4.0 9.0 0.00 0.00 0.00 14 1010.3
20260508025909 87 159 4.0 9.0 0.00 0.00 0.00 13 1010.3
20260508025254 87 176 4.0 9.0 0.00 0.00 0.00 14 1010.3
20260508024937 87 168 4.0 8.0 0.00 0.00 0.00 14 1010.2
20260508024621 87 159 3.0 8.0 0.00 0.00 0.00 14 1010.2
20260508024300 87 158 2.0 6.0 0.00 0.00 0.00 14 1010.2
20260508023636 87 175 3.0 6.0 0.00 0.00 0.00 14 1010.2
20260508023011 88 164 2.0 5.0 0.00 0.00 0.00 14 1010.2
20260508022655 88 167 1.0 6.0 0.00 0.00 0.00 14 1010.3
20260508022336 88 173 1.0 6.0 0.00 0.00 0.00 13 1010.2
20260508022021 88 169 2.0 6.0 0.00 0.00 0.00 13 1010.2
20260508021707 88 192 3.0 7.0 0.00 0.00 0.00 13 1010.3
20260508021348 88 169 3.0 7.0 0.00 0.00 0.00 13 1010.2
20260508021022 89 165 3.0 7.0 0.00 0.00 0.00 13 1010.2
20260508020704 89 144 3.0 7.0 0.00 0.00 0.00 13 1010.3
20260508020041 89 193 3.0 7.0 0.00 0.00 0.00 13 1010.3
20260508015725 89 202 2.0 8.0 0.00 0.00 0.00 13 1010.2
20260508014800 88 196 4.0 8.0 0.00 0.00 0.00 13 1010.2
20260508014441 88 173 4.0 8.0 0.00 0.00 0.00 13 1010.2
20260508014118 88 166 3.0 8.0 0.00 0.00 0.00 14 1010.2
20260508013154 88 219 2.0 8.0 0.00 0.00 0.00 13 1010.2
20260508012830 88 166 2.0 8.0 0.00 0.00 0.00 13 1010.2
20260508012512 88 179 1.0 8.0 0.00 0.00 0.00 14 1010.3
20260508012153 89 188 1.0 5.0 0.00 0.00 0.00 13 1010.3
20260508011536 89 159 2.0 5.0 0.00 0.00 0.00 13 1010.4
20260508011213 89 164 1.0 4.0 0.00 0.00 0.00 13 1010.4
20260508010849 89 159 0.0 4.0 0.00 0.00 0.00 13 1010.4
20260508010533 89 279 0.0 3.0 0.00 0.00 0.00 14 1010.5
20260508010206 89 228 0.0 5.0 0.00 0.00 0.00 14 1010.4
20260508005846 89 146 0.0 5.0 0.00 0.00 0.00 12 1010.5
20260508005530 89 184 0.0 5.0 0.00 0.00 0.00 13 1010.5
20260508004909 90 50 1.0 5.0 0.00 0.00 0.00 13 1010.4
20260508004251 90 345 1.0 2.0 0.00 0.00 0.00 12 1010.6
20260508003928 90 293 1.0 2.0 0.00 0.00 0.00 13 1010.6
20260508003604 90 141 3.0 9.0 0.00 0.00 0.00 12 1010.6
20260508002645 91 173 3.0 9.0 0.00 0.00 0.00 12 1010.7
20260508002322 91 179 2.0 8.0 0.00 0.00 0.00 12 1010.6
20260508001704 91 153 2.0 8.0 0.00 0.00 0.00 11 1010.6
20260508001048 91 107 2.0 8.0 0.00 0.00 0.00 13 1010.7
20260508000729 91 195 2.0 8.0 0.00 0.00 0.00 11 1010.7
20260508000413 92 171 3.0 8.0 0.00 0.00 0.00 11 1010.7
20260508000058 92 136 4.0 7.0 0.00 0.00 0.00 11 1010.8
20260507235741 92 133 3.0 7.0 0.00 0.00 0.00 14 1010.8
20260507235417 92 130 2.0 7.0 0.00 0.00 0.00 11 1010.8
20260507235053 92 166 2.0 7.0 0.00 0.00 0.00 11 1010.9
20260507234738 92 136 2.0 6.0 0.00 0.00 0.00 11 1010.8
20260507234415 92 70 2.0 6.0 0.00 0.00 0.00 13 1010.9
20260507234057 92 134 2.0 6.0 0.00 0.00 0.00 11 1010.9
20260507233738 92 97 2.0 6.0 0.00 0.00 0.00 11 1010.9
20260507233418 92 172 2.0 6.0 0.00 0.00 0.00 11 1010.9
20260507233104 92 95 1.0 5.0 0.00 0.00 0.00 11 1010.9
20260507232750 92 5 1.0 5.0 0.00 0.00 0.00 13 1010.9
20260507232434 93 28 1.0 5.0 0.00 0.00 0.00 12 1011.0
20260507232117 92 294 1.0 7.0 0.00 0.00 0.00 13 1011.0
20260507231755 92 0 2.0 7.0 0.00 0.00 0.00 12 1011.1
20260507231431 92 197 2.0 7.0 0.00 0.00 0.00 10 1011.0
20260507231108 93 49 3.0 9.0 0.00 0.00 0.00 11 1011.1
20260507230743 93 83 4.0 9.0 0.00 0.00 0.00 11 1011.2
20260507230416 93 46 4.0 9.0 0.00 0.00 0.00 12 1011.2
20260507230056 93 54 4.0 9.0 0.00 0.00 0.00 12 1011.2
20260507225732 92 96 3.0 9.0 0.00 0.00 0.00 14 1011.3
20260507225409 92 94 2.0 9.0 0.00 0.00 0.00 15 1011.3
20260507225046 91 90 2.0 9.0 0.00 0.00 0.00 11 1011.4
20260507224420 91 149 3.0 9.0 0.00 0.00 0.00 11 1011.7
20260507224059 92 157 4.0 7.0 0.00 0.00 0.00 11 1011.7
20260507223743 92 134 3.0 7.0 0.00 0.00 0.00 12 1011.7
20260507223419 92 142 3.0 7.0 0.00 0.00 0.00 12 1011.8
20260507223059 92 173 2.0 6.0 0.00 0.00 0.00 12 1011.9
20260507222745 92 161 3.0 10.0 0.00 0.00 0.00 12 1012.0
20260507222430 92 107 3.0 10.0 0.00 0.00 0.00 13 1012.1
20260507222109 93 21 4.0 10.0 0.00 0.00 0.00 11 1012.1
20260507221445 92 63 5.0 10.0 0.00 0.00 0.00 11 1012.3
20260507221122 92 106 3.0 10.0 0.00 0.00 0.00 14 1012.4
20260507220801 93 110 3.0 8.0 0.00 0.00 0.00 13 1012.5
20260507220435 93 97 2.0 11.0 0.00 0.00 0.00 13 1012.5
20260507220119 92 46 3.0 11.0 0.00 0.00 0.00 16 1012.6
20260507215758 92 209 3.0 11.0 0.00 0.00 0.00 12 1012.7
20260507215441 94 115 4.0 11.0 0.00 0.00 0.00 12 1012.7
20260507215123 93 124 3.0 11.0 0.00 0.00 0.00 11 1012.7
20260507214807 93 82 3.0 11.0 0.00 0.00 0.00 10 1012.8
20260507214451 93 118 2.0 8.0 0.00 0.00 0.00 12 1012.9
20260507213532 92 151 1.0 7.0 0.00 0.00 0.00 11 1013.0
20260507213216 91 113 2.0 8.0 0.00 0.00 0.00 12 1013.1
20260507212854 91 302 2.0 8.0 0.00 0.00 0.00 12 1013.1
20260507212536 92 34 2.0 8.0 0.00 0.00 0.00 12 1013.3
20260507211917 93 109 3.0 8.0 0.00 0.00 0.00 13 1013.5
20260507211553 92 65 2.0 8.0 0.00 0.00 0.00 14 1013.5
20260507211228 92 94 2.0 5.0 0.00 0.00 0.00 14 1013.6
20260507210903 92 148 1.0 5.0 0.00 0.00 0.00 10 1013.6
20260507210548 92 22 1.0 8.0 0.00 0.00 0.00 14 1013.7
20260507210228 90 69 1.0 8.0 0.00 0.00 0.00 12 1013.8
20260507205911 89 351 1.0 8.0 0.00 0.00 0.00 12 1013.8
20260507205547 89 355 2.0 10.0 0.00 0.00 0.00 11 1014.0
20260507205228 91 215 3.0 10.0 0.00 0.00 0.00 10 1014.1
20260507204906 92 15 4.0 10.0 0.00 0.00 0.00 12 1014.2
20260507204541 92 350 5.0 10.0 0.00 0.00 0.00 13 1014.1
20260507204217 92 69 4.0 10.0 0.00 0.00 0.00 15 1014.2
20260507203852 92 119 4.0 10.0 0.00 0.00 0.00 12 1014.2
20260507203537 91 122 4.0 9.0 0.00 0.00 0.00 14 1014.2
20260507203212 91 76 4.0 9.0 0.00 0.00 0.00 14 1014.3
20260507202848 91 90 4.0 9.0 0.00 0.00 0.00 13 1014.4
20260507202527 90 103 4.0 9.0 0.00 0.00 0.00 14 1014.5
20260507202205 90 118 3.0 9.0 0.00 0.00 0.00 11 1014.6
20260507201847 89 126 2.0 6.0 0.00 0.00 0.00 14 1014.7
20260507201528 89 111 2.0 12.0 0.00 0.00 0.00 12 1014.7
20260507201214 89 99 1.0 12.0 0.00 0.00 0.00 13 1014.8
20260507200850 88 98 1.0 12.0 0.00 0.00 0.00 13 1014.9
20260507200535 87 55 2.0 12.0 0.00 0.00 0.00 14 1014.9
20260507200214 87 309 3.0 12.0 0.00 0.00 0.00 13 1014.9
20260507195557 87 234 4.0 9.0 0.00 0.00 0.00 12 1015.1
20260507195236 87 180 4.0 9.0 0.00 0.00 0.00 11 1015.2
20260507194919 87 220 4.0 9.0 0.00 0.00 0.00 11 1015.2
20260507194304 88 246 3.0 9.0 0.00 0.00 0.00 12 1015.3
20260507193938 89 244 3.0 7.0 0.00 0.00 0.00 12 1015.4
20260507193324 89 105 1.0 8.0 0.00 0.00 0.00 12 1015.5
20260507193003 88 61 2.0 8.0 0.00 0.00 0.00 14 1015.6
20260507192643 88 26 3.0 8.0 0.00 0.00 0.00 13 1015.6
20260507192322 88 84 3.0 8.0 0.00 0.00 0.00 11 1015.6